| time (UTC) | temp F | wind direction | speed MPH | gust MPH | rain 1hr in | rain 24hr in | rain mn in | humidity % | barometer mb |
| 20260503233452 | 57 | 253 | 2.0 | 3.0 | 0.00 | 0.00 | 0.00 | 50 | 983.5 |
| 20260503232948 | 57 | 278 | 0.0 | 1.0 | 0.00 | 0.00 | 0.00 | 49 | 983.5 |
| 20260503232446 | 57 | 280 | 1.0 | 2.0 | 0.00 | 0.00 | 0.00 | 47 | 983.5 |
| 20260503231944 | 57 | 273 | 1.0 | 6.0 | 0.00 | 0.00 | 0.00 | 47 | 983.4 |
| 20260503231441 | 57 | 285 | 1.0 | 7.0 | 0.00 | 0.00 | 0.00 | 47 | 983.3 |
| 20260503230937 | 57 | 273 | 1.0 | 2.0 | 0.00 | 0.00 | 0.00 | 49 | 983.4 |
| 20260503230434 | 57 | 280 | 1.0 | 5.0 | 0.00 | 0.00 | 0.00 | 46 | 983.6 |
| 20260503225932 | 57 | 274 | 1.0 | 3.0 | 0.00 | 0.00 | 0.00 | 47 | 983.6 |
| 20260503225428 | 57 | 262 | 4.0 | 5.0 | 0.00 | 0.00 | 0.00 | 45 | 983.5 |
| 20260503224924 | 57 | 277 | 1.0 | 2.0 | 0.00 | 0.00 | 0.00 | 46 | 983.4 |
| 20260503224421 | 58 | 261 | 3.0 | 6.0 | 0.00 | 0.00 | 0.00 | 45 | 983.6 |
| 20260503223919 | 58 | 254 | 1.0 | 7.0 | 0.00 | 0.00 | 0.00 | 46 | 983.4 |
| 20260503223416 | 58 | 259 | 3.0 | 7.0 | 0.00 | 0.00 | 0.00 | 45 | 983.5 |
| 20260503222917 | 58 | 258 | 1.0 | 3.0 | 0.00 | 0.00 | 0.00 | 48 | 983.5 |
| 20260503222415 | 57 | 276 | 4.0 | 5.0 | 0.00 | 0.00 | 0.00 | 45 | 983.5 |
| 20260503221914 | 58 | 275 | 2.0 | 5.0 | 0.00 | 0.00 | 0.00 | 47 | 983.7 |
| 20260503221412 | 58 | 190 | 5.0 | 9.0 | 0.00 | 0.00 | 0.00 | 43 | 983.5 |
| 20260503220908 | 58 | 261 | 4.0 | 9.0 | 0.00 | 0.00 | 0.00 | 44 | 983.6 |
| 20260503220404 | 58 | 268 | 1.0 | 2.0 | 0.00 | 0.00 | 0.00 | 49 | 983.4 |
| 20260503215901 | 58 | 266 | 2.0 | 3.0 | 0.00 | 0.00 | 0.00 | 45 | 983.4 |
| 20260503215358 | 59 | 309 | 1.0 | 6.0 | 0.00 | 0.00 | 0.00 | 46 | 983.3 |
| 20260503214856 | 60 | 238 | 3.0 | 6.0 | 0.00 | 0.00 | 0.00 | 43 | 983.4 |
| 20260503214353 | 60 | 243 | 3.0 | 8.0 | 0.00 | 0.00 | 0.00 | 46 | 983.2 |
| 20260503213850 | 60 | 274 | 2.0 | 3.0 | 0.00 | 0.00 | 0.00 | 41 | 983.5 |
| 20260503213348 | 60 | 353 | 3.0 | 7.0 | 0.00 | 0.00 | 0.00 | 42 | 983.2 |
| 20260503212845 | 59 | 183 | 6.0 | 8.0 | 0.00 | 0.00 | 0.00 | 42 | 983.4 |
| 20260503212343 | 59 | 232 | 3.0 | 7.0 | 0.00 | 0.00 | 0.00 | 42 | 983.4 |
| 20260503211839 | 60 | 267 | 2.0 | 3.0 | 0.00 | 0.00 | 0.00 | 45 | 983.2 |
| 20260503211336 | 60 | 250 | 4.0 | 6.0 | 0.00 | 0.00 | 0.00 | 41 | 983.1 |
| 20260503210831 | 60 | 265 | 2.0 | 9.0 | 0.00 | 0.00 | 0.00 | 45 | 983.4 |
| 20260503210329 | 59 | 32 | 3.0 | 5.0 | 0.00 | 0.00 | 0.00 | 45 | 983.2 |
| 20260503205824 | 59 | 264 | 4.0 | 6.0 | 0.00 | 0.00 | 0.00 | 44 | 983.2 |
| 20260503205321 | 60 | 263 | 3.0 | 5.0 | 0.00 | 0.00 | 0.00 | 43 | 983.5 |
| 20260503204817 | 60 | 275 | 2.0 | 7.0 | 0.00 | 0.00 | 0.00 | 45 | 983.5 |
| 20260503204315 | 58 | 136 | 6.0 | 8.0 | 0.00 | 0.00 | 0.00 | 45 | 983.5 |
| 20260503203812 | 58 | 277 | 3.0 | 5.0 | 0.00 | 0.00 | 0.00 | 47 | 983.7 |
| 20260503203309 | 59 | 230 | 4.0 | 7.0 | 0.00 | 0.00 | 0.00 | 45 | 983.8 |
| 20260503202806 | 59 | 277 | 2.0 | 6.0 | 0.00 | 0.00 | 0.00 | 44 | 983.5 |
| 20260503202304 | 58 | 283 | 2.0 | 5.0 | 0.00 | 0.00 | 0.00 | 47 | 983.9 |
| 20260503201802 | 58 | 283 | 4.0 | 6.0 | 0.00 | 0.00 | 0.00 | 45 | 983.9 |
| 20260503201259 | 59 | 315 | 2.0 | 6.0 | 0.00 | 0.00 | 0.00 | 46 | 983.9 |
| 20260503200756 | 59 | 270 | 1.0 | 2.0 | 0.00 | 0.00 | 0.00 | 47 | 984.0 |
| 20260503200252 | 59 | 282 | 0.0 | 7.0 | 0.00 | 0.00 | 0.00 | 44 | 984.0 |
| 20260503195749 | 59 | 201 | 2.0 | 8.0 | 0.00 | 0.00 | 0.00 | 47 | 983.9 |
| 20260503195246 | 59 | 270 | 4.0 | 9.0 | 0.00 | 0.00 | 0.00 | 45 | 984.1 |
| 20260503194743 | 58 | 280 | 1.0 | 6.0 | 0.00 | 0.00 | 0.00 | 47 | 984.5 |
| 20260503194239 | 60 | 260 | 4.0 | 6.0 | 0.00 | 0.00 | 0.00 | 43 | 984.4 |
| 20260503193735 | 58 | 285 | 1.0 | 3.0 | 0.00 | 0.00 | 0.00 | 43 | 984.4 |
| 20260503193231 | 59 | 278 | 2.0 | 10.0 | 0.00 | 0.00 | 0.00 | 47 | 984.5 |
| 20260503192727 | 58 | 59 | 3.0 | 3.0 | 0.00 | 0.00 | 0.00 | 44 | 984.6 |
| 20260503192222 | 58 | 255 | 3.0 | 7.0 | 0.00 | 0.00 | 0.00 | 45 | 984.5 |
| 20260503191720 | 59 | 65 | 3.0 | 3.0 | 0.00 | 0.00 | 0.00 | 41 | 984.6 |
| 20260503191217 | 59 | 276 | 4.0 | 6.0 | 0.00 | 0.00 | 0.00 | 44 | 984.6 |
| 20260503190714 | 59 | 259 | 4.0 | 6.0 | 0.00 | 0.00 | 0.00 | 44 | 984.8 |
| 20260503190210 | 59 | 290 | 2.0 | 5.0 | 0.00 | 0.00 | 0.00 | 43 | 984.9 |
| 20260503185708 | 59 | 297 | 3.0 | 5.0 | 0.00 | 0.00 | 0.00 | 44 | 984.9 |
| 20260503185202 | 58 | 279 | 5.0 | 6.0 | 0.00 | 0.00 | 0.00 | 46 | 984.6 |
| 20260503184657 | 58 | 194 | 3.0 | 7.0 | 0.00 | 0.00 | 0.00 | 50 | 985.1 |
| 20260503184154 | 57 | 269 | 1.0 | 5.0 | 0.00 | 0.00 | 0.00 | 48 | 985.1 |
| 20260503183650 | 57 | 265 | 5.0 | 7.0 | 0.00 | 0.00 | 0.00 | 45 | 985.2 |
| 20260503183148 | 57 | 244 | 3.0 | 10.0 | 0.00 | 0.00 | 0.00 | 47 | 985.3 |
| 20260503182646 | 58 | 292 | 3.0 | 3.0 | 0.00 | 0.00 | 0.00 | 45 | 985.3 |
| 20260503182144 | 59 | 285 | 1.0 | 5.0 | 0.00 | 0.00 | 0.00 | 47 | 985.5 |
| 20260503181641 | 59 | 271 | 4.0 | 14.0 | 0.00 | 0.00 | 0.00 | 45 | 985.1 |
| 20260503181138 | 57 | 150 | 5.0 | 9.0 | 0.00 | 0.00 | 0.00 | 49 | 985.1 |
| 20260503180634 | 56 | 215 | 3.0 | 3.0 | 0.00 | 0.00 | 0.00 | 49 | 985.3 |
| 20260503180133 | 55 | 341 | 2.0 | 3.0 | 0.00 | 0.00 | 0.00 | 48 | 985.4 |
| 20260503175629 | 55 | 259 | 3.0 | 9.0 | 0.00 | 0.00 | 0.00 | 47 | 985.6 |
| 20260503175126 | 56 | 263 | 3.0 | 9.0 | 0.00 | 0.00 | 0.00 | 46 | 985.6 |
| 20260503174623 | 57 | 245 | 5.0 | 7.0 | 0.00 | 0.00 | 0.00 | 45 | 985.6 |
| 20260503174120 | 56 | 180 | 3.0 | 5.0 | 0.00 | 0.00 | 0.00 | 49 | 985.7 |
| 20260503173615 | 57 | 286 | 3.0 | 6.0 | 0.00 | 0.00 | 0.00 | 46 | 985.8 |
| 20260503173112 | 56 | 278 | 2.0 | 7.0 | 0.00 | 0.00 | 0.00 | 45 | 986.1 |
| 20260503172609 | 57 | 297 | 4.0 | 7.0 | 0.00 | 0.00 | 0.00 | 44 | 985.9 |
| 20260503172106 | 57 | 282 | 2.0 | 5.0 | 0.00 | 0.00 | 0.00 | 45 | 985.9 |
| 20260503171603 | 57 | 281 | 3.0 | 5.0 | 0.00 | 0.00 | 0.00 | 48 | 985.8 |
| 20260503171100 | 56 | 236 | 1.0 | 5.0 | 0.00 | 0.00 | 0.00 | 48 | 986.0 |
| 20260503170556 | 56 | 309 | 3.0 | 7.0 | 0.00 | 0.00 | 0.00 | 45 | 986.0 |
| 20260503150949 | 53 | 315 | 3.0 | 7.0 | 0.00 | 0.00 | 0.00 | 41 | 987.1 |
| 20260503150445 | 53 | 268 | 3.0 | 6.0 | 0.00 | 0.00 | 0.00 | 53 | 987.2 |
| 20260503131338 | 44 | 271 | 3.0 | 6.0 | 0.00 | 0.00 | 0.00 | 67 | 987.5 |
| 20260503130836 | 43 | 267 | 1.0 | 2.0 | 0.00 | 0.00 | 0.00 | 73 | 987.4 |
| 20260503130333 | 41 | 283 | 0.0 | 3.0 | 0.00 | 0.00 | 0.00 | 74 | 987.6 |
| 20260503110727 | 29 | 286 | 0.0 | 0.0 | 0.00 | 0.00 | 0.00 | 98 | 987.2 |
| 20260503110224 | 29 | 287 | 0.0 | 0.0 | 0.00 | 0.00 | 0.00 | 98 | 987.2 |
| 20260503100150 | 28 | 285 | 0.0 | 0.0 | 0.00 | 0.00 | 0.00 | 98 | 986.9 |
| 20260503090109 | 28 | 280 | 0.0 | 0.0 | 0.00 | 0.00 | 0.00 | 97 | 986.8 |
| 20260503081545 | 28 | 280 | 0.0 | 0.0 | 0.00 | 0.00 | 0.00 | 97 | 986.8 |
| 20260503081042 | 28 | 280 | 0.0 | 0.0 | 0.00 | 0.00 | 0.00 | 97 | 987.0 |
| 20260503080538 | 28 | 280 | 0.0 | 0.0 | 0.00 | 0.00 | 0.00 | 97 | 987.2 |
| 20260503072512 | 29 | 281 | 0.0 | 0.0 | 0.00 | 0.00 | 0.00 | 96 | 986.9 |
| 20260503072009 | 29 | 281 | 0.0 | 0.0 | 0.00 | 0.00 | 0.00 | 96 | 986.9 |
| 20260503071506 | 29 | 281 | 0.0 | 0.0 | 0.00 | 0.00 | 0.00 | 96 | 986.9 |
| 20260503071002 | 29 | 281 | 0.0 | 0.0 | 0.00 | 0.00 | 0.00 | 96 | 986.7 |
| 20260503070459 | 29 | 281 | 0.0 | 0.0 | 0.00 | 0.00 | 0.00 | 96 | 986.9 |
| 20260503054923 | 30 | 280 | 0.0 | 0.0 | 0.00 | 0.00 | 0.00 | 95 | 987.0 |
| 20260503054419 | 30 | 280 | 0.0 | 0.0 | 0.00 | 0.00 | 0.00 | 95 | 987.1 |
| 20260503053917 | 30 | 281 | 0.0 | 0.0 | 0.00 | 0.00 | 0.00 | 95 | 987.1 |
| 20260503053414 | 30 | 281 | 0.0 | 0.0 | 0.00 | 0.00 | 0.00 | 94 | 987.2 |
| 20260503052911 | 30 | 281 | 0.0 | 0.0 | 0.00 | 0.00 | 0.00 | 94 | 987.3 |
| 20260503052408 | 30 | 281 | 0.0 | 0.0 | 0.00 | 0.00 | 0.00 | 94 | 987.3 |
| 20260503051904 | 30 | 280 | 0.0 | 0.0 | 0.00 | 0.00 | 0.00 | 94 | 987.4 |
| 20260503051400 | 31 | 281 | 0.0 | 0.0 | 0.00 | 0.00 | 0.00 | 94 | 987.1 |
| 20260503050858 | 31 | 280 | 0.0 | 0.0 | 0.00 | 0.00 | 0.00 | 94 | 987.3 |
| 20260503050354 | 31 | 281 | 0.0 | 0.0 | 0.00 | 0.00 | 0.00 | 94 | 987.3 |
| 20260503045852 | 32 | 281 | 0.0 | 0.0 | 0.00 | 0.00 | 0.00 | 93 | 987.4 |
| 20260503045349 | 32 | 280 | 0.0 | 0.0 | 0.00 | 0.00 | 0.00 | 93 | 987.4 |
| 20260503044845 | 32 | 280 | 0.0 | 0.0 | 0.00 | 0.00 | 0.00 | 92 | 987.4 |
| 20260503044342 | 32 | 280 | 0.0 | 0.0 | 0.00 | 0.00 | 0.00 | 91 | 987.4 |
| 20260503043839 | 32 | 280 | 0.0 | 0.0 | 0.00 | 0.00 | 0.00 | 91 | 987.5 |
| 20260503043336 | 32 | 280 | 0.0 | 0.0 | 0.00 | 0.00 | 0.00 | 91 | 987.3 |
| 20260503042832 | 33 | 280 | 0.0 | 0.0 | 0.00 | 0.00 | 0.00 | 90 | 987.6 |
| 20260503042329 | 33 | 280 | 0.0 | 0.0 | 0.00 | 0.00 | 0.00 | 90 | 987.6 |
| 20260503041825 | 33 | 280 | 0.0 | 0.0 | 0.00 | 0.00 | 0.00 | 89 | 987.4 |
| 20260503041323 | 33 | 280 | 0.0 | 0.0 | 0.00 | 0.00 | 0.00 | 89 | 987.3 |
| 20260503040820 | 34 | 280 | 0.0 | 0.0 | 0.00 | 0.00 | 0.00 | 88 | 987.4 |
| 20260503040318 | 34 | 280 | 0.0 | 0.0 | 0.00 | 0.00 | 0.00 | 88 | 987.4 |
| 20260503035815 | 35 | 280 | 0.0 | 0.0 | 0.00 | 0.03 | 0.03 | 87 | 987.3 |
| 20260503035312 | 35 | 280 | 0.0 | 0.0 | 0.00 | 0.03 | 0.03 | 87 | 987.3 |
| 20260503034809 | 35 | 280 | 0.0 | 0.0 | 0.00 | 0.03 | 0.03 | 86 | 987.3 |
| 20260503034306 | 36 | 280 | 0.0 | 0.0 | 0.00 | 0.03 | 0.03 | 86 | 987.2 |
| 20260503033803 | 36 | 280 | 0.0 | 0.0 | 0.00 | 0.03 | 0.03 | 86 | 987.5 |
| 20260503033300 | 36 | 280 | 0.0 | 0.0 | 0.00 | 0.03 | 0.03 | 86 | 987.4 |
| 20260503032759 | 36 | 280 | 0.0 | 0.0 | 0.00 | 0.03 | 0.03 | 85 | 987.2 |
| 20260503032257 | 36 | 280 | 0.0 | 0.0 | 0.00 | 0.03 | 0.03 | 85 | 987.6 |
| 20260503031754 | 37 | 280 | 0.0 | 0.0 | 0.00 | 0.03 | 0.03 | 85 | 987.5 |
| 20260503031252 | 37 | 280 | 0.0 | 0.0 | 0.00 | 0.03 | 0.03 | 84 | 987.4 |
| 20260503030748 | 37 | 280 | 0.0 | 0.0 | 0.00 | 0.03 | 0.03 | 85 | 987.5 |
| 20260503030245 | 37 | 280 | 0.0 | 0.0 | 0.00 | 0.03 | 0.03 | 84 | 987.4 |
| 20260503025741 | 37 | 280 | 0.0 | 0.0 | 0.00 | 0.03 | 0.03 | 84 | 987.6 |
| 20260503025239 | 37 | 280 | 0.0 | 0.0 | 0.00 | 0.03 | 0.03 | 83 | 987.3 |
| 20260503024736 | 37 | 280 | 0.0 | 0.0 | 0.00 | 0.03 | 0.03 | 83 | 987.5 |
| 20260503024233 | 37 | 280 | 0.0 | 0.0 | 0.00 | 0.03 | 0.03 | 83 | 987.7 |
| 20260503023730 | 37 | 280 | 0.0 | 0.0 | 0.00 | 0.03 | 0.03 | 83 | 987.5 |
| 20260503023227 | 37 | 280 | 0.0 | 0.0 | 0.00 | 0.03 | 0.03 | 83 | 987.8 |
| 20260503022723 | 37 | 280 | 0.0 | 0.0 | 0.00 | 0.03 | 0.03 | 82 | 987.9 |
| 20260503022223 | 37 | 280 | 0.0 | 0.0 | 0.00 | 0.03 | 0.03 | 81 | 987.8 |
| 20260503021720 | 37 | 280 | 0.0 | 0.0 | 0.00 | 0.03 | 0.03 | 82 | 987.7 |
| 20260503021216 | 38 | 280 | 0.0 | 0.0 | 0.00 | 0.03 | 0.03 | 82 | 987.8 |
| 20260503020714 | 38 | 280 | 0.0 | 0.0 | 0.00 | 0.03 | 0.03 | 80 | 987.7 |
| 20260503020211 | 38 | 280 | 0.0 | 0.0 | 0.00 | 0.03 | 0.03 | 80 | 987.7 |
| 20260503015708 | 38 | 279 | 0.0 | 0.0 | 0.00 | 0.03 | 0.03 | 79 | 987.5 |
| 20260503015205 | 38 | 280 | 0.0 | 0.0 | 0.00 | 0.03 | 0.03 | 79 | 987.9 |
| 20260503014700 | 38 | 280 | 0.0 | 0.0 | 0.00 | 0.03 | 0.03 | 81 | 987.8 |
| 20260503014158 | 38 | 280 | 0.0 | 0.0 | 0.00 | 0.03 | 0.03 | 80 | 987.7 |
| 20260503013655 | 38 | 280 | 0.0 | 0.0 | 0.00 | 0.03 | 0.03 | 79 | 987.6 |
| 20260503013153 | 39 | 280 | 0.0 | 0.0 | 0.00 | 0.03 | 0.03 | 77 | 987.6 |
| 20260503012650 | 39 | 280 | 0.0 | 0.0 | 0.00 | 0.03 | 0.03 | 74 | 987.6 |
| 20260503012147 | 39 | 280 | 0.0 | 0.0 | 0.00 | 0.03 | 0.03 | 74 | 987.7 |
| 20260503011643 | 39 | 280 | 0.0 | 1.0 | 0.00 | 0.03 | 0.03 | 72 | 987.5 |
| 20260503011140 | 39 | 280 | 0.0 | 0.0 | 0.00 | 0.03 | 0.03 | 72 | 987.5 |
| 20260503010636 | 39 | 280 | 0.0 | 0.0 | 0.00 | 0.03 | 0.03 | 72 | 987.5 |
| 20260503010134 | 40 | 280 | 0.0 | 0.0 | 0.00 | 0.03 | 0.03 | 71 | 987.7 |
| 20260503005631 | 40 | 280 | 0.0 | 0.0 | 0.00 | 0.03 | 0.03 | 71 | 987.7 |
| 20260503005128 | 40 | 281 | 0.0 | 1.0 | 0.00 | 0.03 | 0.03 | 70 | 987.6 |
| 20260503004624 | 40 | 277 | 0.0 | 3.0 | 0.00 | 0.03 | 0.03 | 71 | 987.5 |
| 20260503004123 | 40 | 280 | 0.0 | 0.0 | 0.00 | 0.03 | 0.03 | 71 | 987.4 |
| 20260503003620 | 40 | 280 | 0.0 | 0.0 | 0.00 | 0.03 | 0.03 | 70 | 987.4 |
| 20260503003116 | 40 | 273 | 2.0 | 2.0 | 0.00 | 0.03 | 0.03 | 69 | 987.4 |
| 20260503002614 | 40 | 277 | 0.0 | 1.0 | 0.00 | 0.03 | 0.03 | 69 | 987.4 |
| 20260503002110 | 40 | 277 | 1.0 | 1.0 | 0.00 | 0.03 | 0.03 | 68 | 987.3 |
| 20260503001606 | 41 | 286 | 1.0 | 1.0 | 0.00 | 0.03 | 0.03 | 70 | 987.4 |
| 20260503001104 | 41 | 280 | 0.0 | 1.0 | 0.00 | 0.03 | 0.03 | 69 | 987.2 |
| 20260503000601 | 41 | 284 | 1.0 | 2.0 | 0.00 | 0.03 | 0.03 | 67 | 987.4 |
| 20260503000058 | 41 | 280 | 1.0 | 2.0 | 0.00 | 0.03 | 0.03 | 68 | 987.4 |
| 20260502235554 | 41 | 275 | 1.0 | 2.0 | 0.00 | 0.03 | 0.03 | 66 | 987.2 |
| 20260502235052 | 41 | 279 | 1.0 | 5.0 | 0.00 | 0.03 | 0.03 | 65 | 987.3 |
| 20260502234548 | 41 | 301 | 3.0 | 3.0 | 0.00 | 0.03 | 0.03 | 66 | 987.3 |
| 20260502234046 | 41 | 279 | 0.0 | 3.0 | 0.00 | 0.03 | 0.03 | 65 | 987.2 |